Starlink 32391

operational
NORAD ID: 61855 Int'l Des: 2024-202 Owner: SPXS Country: US Constellation: starlink
LEOCIRCULAR

Über Starlink 32391

Beschreibung wird geladen...

Live-Position

3D-Globus wird geladen...

Nächste Überflüge

Höhenverlauf

Altitude vs Time

uPlot chart will show altitude changes over time

Zweizeiliger Elementsatz

1 61855U 24202L 26036.08796842 -.00000343 00000-0 -29492-5 0 9999
2 61855 43.0018 61.9290 0000636 253.3213 106.7569 15.27572055 70341
Epoch: 5. Feb. 2026 • Age: 10 hours

Aktueller Status

Höhe 484.5 km
Geschwindigkeit 7.63 km/s
Subsatellitenpunkt 32.45°N, 150.44°E
Startdatum 7. Nov. 2024
Alter 1.2 years
Typ internet

Technische Details

Klassifizierung Payload
Masse 730.00 kg
Trockenmasse 700.00 kg
Gesamtmasse 730.00 kg
Länge 0.30 m
Durchmesser 4.10 m
Spannweite 29.00 m
Form Box + pan
Hersteller SPXS
Bus-Typ Starlink V2M
Phasenstatus In Orbit
Besitzer/Staat SPXS/US

Große Konstellationen

Loading constellations...